This is the latest recevied weather packets stored in our database for station/object KQ4KX. If no packets are shown the sender has not sent any weather packets the latest 10 day(s).
| Time | Temp. | Humidity | Pressure | Rain* | Wind** | Luminosity | Snow |
|---|---|---|---|---|---|---|---|
| 1788621755 | 30.56° C | 83% | 1015.3 hPa | 0 mm | - | - | - |
| 1788621612 | 30.56° C | 80% | 1015.3 hPa | 0 mm | - | - | - |
| 1788621455 | 30.56° C | 80% | 1015.3 hPa | 0 mm | - | - | - |
| 1788620795 | 31.11° C | 81% | 1015.3 hPa | 0 mm | - | - | - |
| 1788620135 | 31.11° C | 81% | 1015.1 hPa | 0 mm | - | - | - |
| 1788619805 | 30.56° C | 82% | 1015.3 hPa | 0 mm | - | - | - |
| 1788619627 | 30.56° C | 85% | 1015.2 hPa | 0 mm | - | - | - |
| 1788619506 | 30.56° C | 85% | 1015.2 hPa | 0 mm | - | - | - |
| 1788619175 | 30.56° C | 84% | 1015.2 hPa | 0 mm | - | - | - |
| 1788618845 | 30° C | 83% | 1015.2 hPa | 0 mm | - | - | - |
| 1788618545 | 30° C | 84% | 1015.1 hPa | 0 mm | - | - | - |
| 1788617585 | 29.44° C | 87% | 1015.3 hPa | 0 mm | - | - | - |
| 1788617255 | 29.44° C | 87% | 1015.3 hPa | 0 mm | - | - | - |
| 1788616758 | 28.89° C | 88% | 1015.3 hPa | 0 mm | - | - | - |
| 1788616626 | 28.89° C | 88% | 1015.3 hPa | 0 mm | - | - | - |
| 1788616409 | 28.89° C | 89% | 1015.4 hPa | 0 mm | - | - | - |
| 1788616295 | 28.89° C | 89% | 1015.4 hPa | 0 mm | - | - | - |
| 1788615844 | 28.33° C | 90% | 1015.3 hPa | 0 mm | - | - | - |
| 1788615669 | 28.33° C | 90% | 1015.3 hPa | 0 mm | - | - | - |
| 1788615499 | 28.33° C | 92% | 1015.2 hPa | 0 mm | - | - | - |
| 1788615335 | 28.33° C | 92% | 1015.2 hPa | 0 mm | - | - | - |
| 1788615005 | 27.78° C | 92% | 1015.3 hPa | 0 mm | - | - | - |
| 1788614875 | 27.78° C | 93% | 1015.3 hPa | 0 mm | - | - | - |
| 1788614675 | 27.78° C | 93% | 1015.3 hPa | 0 mm | - | - | - |
| 1788614345 | 27.78° C | 93% | 1015.3 hPa | 0 mm | - | - | - |
* Rain latest hour (hover to see other rain measurements)
** Current wind speed in m/s (hover to see current wind gust speed)